Skip Page Navigation
NASA JPL Caltech
NASA Logo - Jet Propulsion Laboratory + View the NASA Portal
+ Center for Near-Earth Object Studies
JPL Home Earth Solar System Stars & Galaxies Technology
JPL Solar System Dynamics
BODIES ORBITS EPHEMERIDES TOOLS PHYSICAL DATA DISCOVERY FAQ SITE MAP
JPL Small-Body Database Browser
Search: [ help ]  
4335 Verona (1983 VC7)
Classification: Main-belt Asteroid          SPK-ID: 2004335
Ephemeris | Orbit Diagram | Orbital Elements | Mission Design | Physical Parameters | Discovery Circumstances ]

[ show orbit diagram ]
Orbital Elements at Epoch 2459000.5 (2020-May-31.0) TDB
Reference: JPL 34 (heliocentric ecliptic J2000)
 Element Value Uncertainty (1-sigma)   Units 
e .2193546401559483 3.1612e-08  
a 2.211933390898056 5.0248e-09 au
q 1.726735537888687 7.106e-08 au
i 3.100231706613672 3.6125e-06 deg
node 37.62841888452785 5.2595e-05 deg
peri 324.742221679107 5.304e-05 deg
M 64.89681679228173 6.2657e-06 deg
tp 2458783.890555701581
(2019-Oct-27.39055570)
2.0874e-05 TDB
period 1201.590521720395
3.29
4.0944e-06
1.121e-08
d
yr
n .2996028959054742 1.0209e-09 deg/d
Q 2.697131243907426 6.127e-09 au
  Orbit Determination Parameters
   # obs. used (total)      2611  
   data-arc span      23955 days (65.59 yr)  
   first obs. used      1955-03-23  
   last obs. used      2020-10-22  
   planetary ephem.      DE431  
   SB-pert. ephem.      SB431-N16  
   condition code      0  
   norm. resid. RMS      .45044  
   source      ORB  
   producer      Otto Matic  
   solution date      2020-Nov-13 03:52:27  

Additional Information
 Earth MOID = .725426 au 
 Jupiter MOID = 2.75859 au 
 T_jup = 3.623 
[ show covariance matrix ]

Ephemeris | Orbit Diagram | Orbital Elements | Mission Design | Physical Parameters | Discovery Circumstances ]

Physical Parameter Table
Parameter Symbol Value Units Sigma Reference Notes
absolute magnitude H 13.4   n/a MPO502195  
diameter diameter 5.15 km 0.4 IRAS-A-FPA-3-RDR-IMPS-V6.0 IRAS observations used: 3
rotation period rot_per 3.5943 h n/a LCDB (Rev. 2019-August); Warner et al., 2009 Published Reference List:
[Behrend, R. (2006) Observatoire de Geneve web site, http://obswww.unige.ch/~behrend/page_cou.html]
[Pravec, P.; Wolf, M.; Sarounova, L. (2006) http://www.asu.cas.cz/~ppravec/neo.htm]
geometric albedo albedo 0.2418   0.041 IRAS-A-FPA-3-RDR-IMPS-V6.0 IRAS observations used: 3

4335 Verona (1983 VC7)          Discovered 1983-Nov-01 by Cavriana at Cavriana
Reference: DISCOVERY.DBLast Updated: 2003-08-29

Alternate Designations
 1983 VC7 = 1927 SG = 1973 SB5 = 1978 ES1 = 1988 BZ2 
Ephemeris | Orbit Diagram | Orbital Elements | Mission Design | Physical Parameters | Discovery Circumstances ]
ABOUT SSD CREDITS/AWARDS PRIVACY/COPYRIGHT GLOSSARY LINKS
FirstGov 2020-Nov-29 02:29 UT
(server date/time)  
NASA Home Page
Site Manager:   Ryan S. Park
Webmaster  Alan B. Chamberlin